Location: Deuil
(48.9767°N, 2.3272°E)
Time: 03:40:34
(UTC+00:00)

Cosmos 2360 Rocket - Pass Details

Date: 29 May 2022
Orbit: 832 x 846 km, 71.0° (Epoch: 03 July)

Event Time Altitude Azimuth Distance (km) Brightness Sun altitude
Exits shadow 22:33:43 11° 216° (SW) 2,408 4.2 -17.4°
Maximum altitude 22:39:13 71° 300° (WNW) 891 2.4 -17.6°
Drops below altitude 10° 22:44:53 10° 25° (NNE) 2,470 5.3 -17.9°
Sets 22:47:21 0° 28° (NNE) 3,411 6.1 -18.0°
